Lakeville, MN

12:54 PM CST on November 18, 2017 (GMT -0600)
Airlake

Weather History for KLVN - December, 2013

Change the Weather History Date:

Thursday, December 26, 2013

  Actual Average Record
Temperature  
Mean Temperature 14 °F -  
Max Temperature 23 °F 21 °F 48 °F (2011)
Min Temperature 5 °F 4 °F -25 °F (1996)
Degree Days  
Heating Degree Days 51    
Moisture  
Dew Point 13 °F    
Average Humidity 93    
Maximum Humidity 100    
Minimum Humidity 85    
Precipitation  
Precipitation 0.00 in - - ()
Sea Level Pressure  
Sea Level Pressure 30.10 in    
Wind  
Wind Speed 1 mph (ENE)    
Max Wind Speed 4 mph    
Max Gust Speed -    
Visibility 7 miles    
Events Fog , Snow    
Averages and records for this station are not official NWS values.
T = Trace of Precipitation, MM = Missing Value Source: NWS Daily Summary

Daily Weather History Graph

Daily Weather History Graph

Search for Another Location

Airport or City:

Trip Planner

Search our weather history database for the weather conditions in past years. The results will help you decide how hot, cold, wet, or windy it might be!

Date:

Astronomy

Dec. 26, 2013 Rise Set
Actual Time 7:48 AM CST 4:38 PM CST
Civil Twilight 7:15 AM CST 5:12 PM CST
Nautical Twilight 6:38 AM CST 5:49 PM CST
Astronomical Twilight 6:02 AM CST 6:24 PM CST
Moon 1:07 AM CST (12/26) 12:24 PM CST (12/26)
Length of Visible Light 9h 56m
Length of Day
8h 49m
Last Quarter, 38% of the Moon is Illuminated
Dec 26
Last Quarter
Jan 1
New
Jan 7
First Quarter
Jan 15
Full
Jan 23
Last Quarter

Hourly Weather History & Observations

Time (CST) Temp. Windchill Dew Point Humidity Pressure Visibility Wind Dir Wind Speed Gust Speed Precip Events Conditions
12:06 AM 12.2 °F 6.1 °F 8.6 °F 85% 30.10 in 5.0 mi West 3.5 mph - N/A Snow Light Snow
12:26 AM 12.2 °F - 10.4 °F 92% 30.09 in 4.0 mi Calm Calm - N/A Snow Light Snow
12:46 AM 12.2 °F - 8.6 °F 85% 30.10 in 10.0 mi Calm Calm - N/A   Unknown
1:06 AM 12.2 °F - 10.4 °F 92% 30.10 in 10.0 mi Calm Calm - N/A   Overcast
1:26 AM 12.2 °F - 10.4 °F 92% 30.09 in 10.0 mi Calm Calm - N/A Snow Light Snow
1:46 AM 12.2 °F - 10.4 °F 92% 30.10 in 10.0 mi Calm Calm - N/A Snow Light Snow
2:05 AM 14.0 °F - 10.4 °F 86% 30.09 in 10.0 mi Calm Calm - N/A Snow Light Snow
2:26 AM 14.0 °F - 10.4 °F 86% 30.09 in 10.0 mi Calm Calm - N/A Snow Light Snow
2:46 AM 14.0 °F - 10.4 °F 86% 30.09 in 10.0 mi Calm Calm - N/A   Overcast
3:05 AM 14.0 °F - 10.4 °F 86% 30.09 in 10.0 mi Calm Calm - N/A   Unknown
3:26 AM 14.0 °F - 12.2 °F 93% 30.08 in 10.0 mi Calm Calm - N/A   Overcast
3:46 AM 15.8 °F - 12.2 °F 86% 30.08 in 10.0 mi Calm Calm - N/A   Unknown
4:06 AM 15.8 °F - 12.2 °F 86% 30.08 in 10.0 mi Calm Calm - N/A   Overcast
4:25 AM 15.8 °F - 12.2 °F 86% 30.07 in 10.0 mi Calm Calm - N/A   Overcast
4:46 AM 14.0 °F - 10.4 °F 86% 30.07 in 10.0 mi Calm Calm - N/A   Unknown
5:06 AM 12.2 °F - 10.4 °F 92% 30.06 in 10.0 mi Calm Calm - N/A   Scattered Clouds
5:25 AM 12.2 °F - 10.4 °F 92% 30.06 in 10.0 mi Calm Calm - N/A   Unknown
5:46 AM 10.4 °F - 10.4 °F 100% 30.06 in 10.0 mi Calm Calm - N/A   Unknown
6:05 AM 8.6 °F - 8.6 °F 100% 30.06 in 5.0 mi Calm Calm - N/A   Clear
6:26 AM 6.8 °F - 6.8 °F 100% 30.08 in 1.5 mi Calm Calm - N/A   Mist
6:46 AM 6.8 °F - 3.2 °F 85% 30.07 in 0.5 mi Calm Calm - N/A Fog Light Freezing Fog
7:05 AM 5.0 °F - 1.4 °F 85% 30.07 in 0.5 mi Calm Calm - N/A Fog Light Freezing Fog
7:26 AM 5.0 °F - 3.2 °F 92% 30.07 in 4.0 mi Calm Calm - N/A   Mist
7:46 AM 6.8 °F - 5.0 °F 92% 30.08 in 2.5 mi Calm Calm - N/A   Clear
8:05 AM 6.8 °F - 5.0 °F 92% 30.08 in 4.0 mi Calm Calm - N/A   Mist
8:26 AM 8.6 °F - 6.8 °F 92% 30.08 in 7.0 mi Calm Calm - N/A   Clear
8:46 AM 8.6 °F - 6.8 °F 92% 30.08 in 7.0 mi Calm Calm - N/A   Unknown
9:05 AM 8.6 °F - 6.8 °F 92% 30.09 in 4.0 mi Calm Calm - N/A   Mist
9:26 AM 10.4 °F - 8.6 °F 92% 30.09 in 7.0 mi Calm Calm - N/A   Unknown
9:46 AM 10.4 °F - 8.6 °F 92% 30.09 in 7.0 mi Calm Calm - N/A   Unknown
10:05 AM 10.4 °F - 10.4 °F 100% 30.10 in 10.0 mi Calm Calm - N/A   Clear
10:26 AM 12.2 °F - 10.4 °F 92% 30.10 in 10.0 mi Calm Calm - N/A   Clear
10:46 AM 12.2 °F - 10.4 °F 92% 30.10 in 10.0 mi Calm Calm - N/A   Clear
11:05 AM 15.8 °F - 12.2 °F 86% 30.09 in 7.0 mi Calm Calm - N/A   Clear
11:26 AM 15.8 °F - 15.8 °F 100% 30.08 in 10.0 mi Calm Calm - N/A   Scattered Clouds
11:46 AM 17.6 °F - 15.8 °F 93% 30.08 in 3.0 mi Calm Calm - N/A Snow Light Snow
12:05 PM 17.6 °F 12.3 °F 15.8 °F 93% 30.08 in 3.0 mi ENE 3.5 mph - N/A Snow Light Snow
12:26 PM 19.4 °F - 17.6 °F 93% 30.07 in 4.0 mi Calm Calm - N/A Snow Light Snow
12:45 PM 19.4 °F 14.3 °F 17.6 °F 93% 30.06 in 3.0 mi East 3.5 mph - N/A Snow Light Snow
1:06 PM 19.4 °F 14.3 °F 17.6 °F 93% 30.06 in 2.5 mi East 3.5 mph - N/A Snow Light Snow
1:26 PM 21.2 °F - 17.6 °F 86% 30.06 in 5.0 mi Calm Calm - N/A Snow Light Snow
1:45 PM 21.2 °F - 17.6 °F 86% 30.06 in 10.0 mi Calm Calm - N/A   Overcast
2:06 PM 21.2 °F - 19.4 °F 93% 30.05 in 5.0 mi Calm Calm - N/A Snow Light Snow
2:26 PM 21.2 °F 16.4 °F 19.4 °F 93% 30.05 in 10.0 mi East 3.5 mph - N/A   Overcast
2:45 PM 21.2 °F - 19.4 °F 93% 30.06 in 10.0 mi Calm Calm - N/A   Overcast
3:06 PM 21.2 °F - 19.4 °F 93% 30.06 in 10.0 mi Calm Calm - N/A   Overcast
3:25 PM 21.2 °F - 19.4 °F 93% 30.07 in 10.0 mi Calm Calm - N/A   Unknown
3:46 PM 21.2 °F - 19.4 °F 93% 30.08 in 10.0 mi Calm Calm - N/A   Unknown
4:06 PM 21.2 °F - 19.4 °F 93% 30.09 in 10.0 mi Calm Calm - N/A   Overcast
4:25 PM 21.2 °F 16.4 °F 19.4 °F 93% 30.09 in 10.0 mi ENE 3.5 mph - N/A   Unknown
4:46 PM 21.2 °F 16.4 °F 19.4 °F 93% 30.10 in 10.0 mi ENE 3.5 mph - N/A   Overcast
5:06 PM 21.2 °F 16.4 °F 19.4 °F 93% 30.10 in 10.0 mi East 3.5 mph - N/A   Overcast
5:25 PM 21.2 °F - 19.4 °F 93% 30.10 in 10.0 mi Calm Calm - N/A   Overcast
5:46 PM 21.2 °F - 21.2 °F 100% 30.11 in 10.0 mi Calm Calm - N/A   Unknown
6:06 PM 21.2 °F - 21.2 °F 100% 30.12 in 10.0 mi Calm Calm - N/A   Overcast
6:25 PM 23.0 °F - 21.2 °F 93% 30.13 in 7.0 mi Calm Calm - N/A   Overcast
6:46 PM 23.0 °F - 21.2 °F 93% 30.14 in 7.0 mi Calm Calm - N/A   Overcast
7:06 PM 21.2 °F - 21.2 °F 100% 30.14 in 10.0 mi Calm Calm - N/A   Overcast
7:25 PM 21.2 °F - 21.2 °F 100% 30.14 in 10.0 mi Calm Calm - N/A   Unknown
7:46 PM 21.2 °F - 21.2 °F 100% 30.14 in 10.0 mi Calm Calm - N/A   Overcast
8:06 PM 21.2 °F - 19.4 °F 93% 30.14 in 10.0 mi Calm Calm - N/A   Unknown
8:25 PM 21.2 °F - 19.4 °F 93% 30.14 in 10.0 mi Calm Calm - N/A   Unknown
8:46 PM 21.2 °F - 19.4 °F 93% 30.14 in 10.0 mi Calm Calm - N/A   Unknown
9:06 PM 21.2 °F - 19.4 °F 93% 30.14 in 10.0 mi Calm Calm - N/A   Unknown
9:25 PM 17.6 °F - 17.6 °F 100% 30.14 in 5.0 mi Calm Calm - N/A   Clear
9:46 PM 19.4 °F - 19.4 °F 100% 30.14 in 5.0 mi Calm Calm - N/A   Clear
10:06 PM 14.0 °F - 12.2 °F 93% 30.14 in 2.5 mi Calm Calm - N/A   Clear
10:25 PM 8.6 °F - 6.8 °F 92% 30.14 in 0.2 mi Calm Calm - N/A Fog Light Freezing Fog
10:46 PM 6.8 °F - 5.0 °F 92% 30.15 in 0.8 mi Calm Calm - N/A   Mostly Cloudy
11:06 PM 6.8 °F - 6.8 °F 100% 30.15 in 0.2 mi Calm Calm - N/A Fog Light Freezing Fog
11:25 PM 6.8 °F - 6.8 °F 100% 30.15 in 0.5 mi Calm Calm - N/A Fog Light Freezing Fog
11:46 PM 6.8 °F - 5.0 °F 92% 30.15 in 1.5 mi Calm Calm - N/A   Mist